User: anonymous   Login
Location: Palomar Mountain Lodge
(33.3110°N, 116.8495°W)
Time: 18:34:42
(UTC-07:00)
Language:

Cosmos 1455 - Orbit

View from above orbital plane
View from above orbital plane
View from above satellite
View from above satellite

Ground track
Ground track

The orbit data is extracted from the following two-line orbital elements,

1 14032U 83037A   19290.69392448  .00000460  00000-0  20875-4 0  9993
2 14032  82.5149 324.7434 0016793 190.3468 169.7423 15.18058406990676
Epoch (UTC): 17 October 2019 16:39:15
Eccentricity: 0.0016793
inclination: 82.5149°
perigee height: 500 km
apogee height: 523 km
right ascension of ascending node: 324.7434°
argument of perigee: 190.3468°
revolutions per day: 15.18058406
mean anomaly at epoch: 169.7423°
orbit number at epoch: 99067

The dashed part of the orbit path shows where the satellite is in the earth's shadow,  

DLR